Location: Malmö
(55.6050°N, 13.0038°E)
Time: 04:37:28
(UTC+02:00)

ISS - Pass Details

Date: 04 August 2017
Orbit: 402 x 407 km, 51.6° (Epoch: 24 May)

Event Time Altitude Azimuth Distance (km) Brightness Sun altitude
Rises 22:27:55 0° 273° (W) 2,326 0.7 -9.4°
Reaches altitude 10° 22:30:21 10° 256° (WSW) 1,461 -0.7 -9.6°
Maximum altitude 22:32:50 20° 207° (SSW) 997 -2.1 -9.8°
Enters shadow 22:34:40 13° 165° (SSE) 1,271 -1.9 -10.0°
